Weather History for KSAT - May, 2013

Change the Weather History Date:

Saturday, May 4, 2013

  Actual Average Record
Temperature  
Mean Temperature 61 °F 74 °F  
Max Temperature 80 °F 84 °F 99 °F (1984)
Min Temperature 42 °F 64 °F 42 °F (2013)
Degree Days  
Heating Degree Days 4 0  
Month to date heating degree days 13 0  
Since 1 July heating degree days 1204 1494  
Cooling Degree Days 0 9  
Month to date cooling degree days 12 35  
Year to date cooling degree days 273 294  
Growing Degree Days 11 (Base 50)    
Moisture  
Dew Point 36 °F    
Average Humidity 50    
Maximum Humidity 82    
Minimum Humidity 17    
Precipitation  
Precipitation 0.00 in 0.11 in 2.81 in (1895)
Month to date precipitation 0.65 0.43  
Year to date precipitation 7.30 8.39  
Snow  
Snow 0.00 in - - ()
Month to date snowfall 0.0  
Since 1 July snowfall T  
Snow Depth 0.00 in    
Sea Level Pressure  
Sea Level Pressure 29.97 in    
Wind  
Wind Speed 6 mph (WSW)    
Max Wind Speed 16 mph    
Max Gust Speed 23 mph    
Visibility 10 miles    
Events      
T = Trace of Precipitation, MM = Missing Value Source: NWS Daily Summary

Daily Weather History Graph

Daily Weather History Graph

Search for Another Location

Airport or City:

Trip Planner

Search our weather history database for the weather conditions in past years. The results will help you decide how hot, cold, wet, or windy it might be!

Date:

Astronomy

May. 04, 2013 Rise Set
Actual Time 6:48 AM CDT 8:12 PM CDT
Civil Twilight 6:23 AM CDT 8:38 PM CDT
Nautical Twilight 5:53 AM CDT 9:08 PM CDT
Astronomical Twilight 5:21 AM CDT 9:40 PM CDT
Moon 3:24 AM CDT (5/4) 3:33 PM CDT (5/4)
Length of Visible Light 14h 14m
Length of Day
13h 23m
Waning Crescent, 27% of the Moon is Illuminated
May 4
Waning Crescent
May 9
New
May 17
First Quarter
May 24
Full
May 31
Last Quarter

Hourly Weather History & Observations

Time (CDT) Temp. Windchill Dew Point Humidity Pressure Visibility Wind Dir Wind Speed Gust Speed Precip Events Conditions
12:51 AM 48.0 °F - 39.0 °F 71% 30.07 in 10.0 mi WNW 3.5 mph - N/A   Partly Cloudy
1:51 AM 45.0 °F 42.6 °F 37.9 °F 76% 30.06 in 10.0 mi WNW 4.6 mph - N/A   Partly Cloudy
2:51 AM 45.0 °F 41.8 °F 37.9 °F 76% 30.02 in 10.0 mi WNW 5.8 mph - N/A   Partly Cloudy
3:51 AM 45.0 °F 43.5 °F 37.9 °F 76% 30.01 in 10.0 mi NW 3.5 mph - N/A   Clear
4:51 AM 44.1 °F 40.8 °F 37.0 °F 76% 30.00 in 10.0 mi WNW 5.8 mph - N/A   Partly Cloudy
5:51 AM 42.1 °F 39.2 °F 37.0 °F 82% 30.01 in 10.0 mi NNW 4.6 mph - N/A   Clear
6:51 AM 43.0 °F 40.3 °F 37.0 °F 80% 30.01 in 10.0 mi NW 4.6 mph - N/A   Partly Cloudy
7:51 AM 48.9 °F - 41.0 °F 74% 30.03 in 10.0 mi NW 4.6 mph - N/A   Partly Cloudy
8:51 AM 57.9 °F - 36.0 °F 44% 30.03 in 10.0 mi WSW 9.2 mph - N/A   Partly Cloudy
9:51 AM 63.0 °F - 33.1 °F 33% 30.04 in 10.0 mi SW 12.7 mph - N/A   Partly Cloudy
10:51 AM 66.9 °F - 33.1 °F 28% 30.03 in 10.0 mi SW 15.0 mph 23.0 mph N/A   Partly Cloudy
11:51 AM 71.1 °F - 35.1 °F 27% 30.01 in 10.0 mi West 8.1 mph - N/A   Partly Cloudy
12:51 PM 73.0 °F - 35.1 °F 25% 29.99 in 10.0 mi Variable 4.6 mph - N/A   Partly Cloudy
1:51 PM 75.0 °F - 36.0 °F 24% 29.95 in 10.0 mi Variable 5.8 mph - N/A   Partly Cloudy
2:51 PM 78.1 °F - 37.0 °F 23% 29.94 in 10.0 mi SSW 5.8 mph - N/A   Partly Cloudy
3:51 PM 79.0 °F - 37.0 °F 22% 29.91 in 10.0 mi SSW 8.1 mph - N/A   Scattered Clouds
4:51 PM 79.0 °F - 33.1 °F 19% 29.88 in 10.0 mi SSW 9.2 mph - N/A   Scattered Clouds
5:51 PM 79.0 °F - 30.9 °F 17% 29.87 in 10.0 mi WSW 4.6 mph - N/A   Mostly Cloudy
6:51 PM 78.1 °F - 30.9 °F 18% 29.86 in 10.0 mi South 6.9 mph - N/A   Mostly Cloudy
7:51 PM 73.9 °F - 34.0 °F 23% 29.87 in 10.0 mi South 8.1 mph - N/A   Mostly Cloudy
8:51 PM 72.0 °F - 36.0 °F 27% 29.88 in 10.0 mi South 6.9 mph - N/A   Mostly Cloudy
9:51 PM 69.1 °F - 36.0 °F 30% 29.91 in 10.0 mi Calm Calm - N/A   Partly Cloudy
10:51 PM 62.1 °F - 44.1 °F 52% 29.93 in 10.0 mi NW 3.5 mph - N/A   Partly Cloudy
11:51 PM 57.9 °F - 44.1 °F 60% 29.95 in 10.0 mi Calm Calm - N/A   Partly Cloudy